Location: Deurze
(52.9838°N, 6.6090°E)
Time: 18:48:06
(UTC+00:00)

Terra - Pass Details

Date: 11 March 2026
Orbit: 687 x 692 km, 98.0° (Epoch: 20 April)

Event Time Altitude Azimuth Distance (km) Brightness Sun altitude
Exits shadow 18:24:49 11° 105° (ESE) 2,067 3.6 -9.0°
Maximum altitude 18:28:05 22° 58° (ENE) 1,513 3.1 -9.5°
Drops below altitude 10° 18:31:39 10° 9° (N) 2,159 4.3 -10.0°
Sets 18:34:19 0° 354° (N) 3,080 5.3 -10.4°
